Location: Le Castellard
(44.1862°N, 6.1301°E)
Time: 09:23:01
(UTC+00:00)

Cosmos 2263 Rocket - Pass Details

Date: 18 January 2020
Orbit: 822 x 849 km, 71.0° (Epoch: 27 February)

Event Time Altitude Azimuth Distance (km) Brightness Sun altitude
Exits shadow 04:39:26 - 354° (N) 2,730 4.7 -25.9°
Reaches altitude 10° 04:40:27 10° 1° (N) 2,457 4.6 -25.7°
Maximum altitude 04:44:29 20° 47° (NE) 1,863 4.4 -25.0°
Drops below altitude 10° 04:48:32 10° 93° (E) 2,461 5.7 -24.3°
Sets 04:51:40 0° 110° (ESE) 3,396 6.6 -23.7°
